Retour au catalogue

STARLINK-37269

ActifCommunicationsSSO
NORAD 68621·PAYLOAD·🇺🇸 United States

Lancé Apr 5, 2026 depuis Vandenberg Space Force Base

Loading…

Prochains Passages (prochaines 24 heures)

TLE

FraisSource: CelesTrak SupGP

Époque: Sep 15, 2026, 03:59 UTC

1 68621C 26073V   26258.16645833 -.00050655  00000+0 -15722-2 0  2589
2 68621  97.2850  96.2320 0001808  90.4050 199.0137 15.33468397    13

Suivez STARLINK-37269 en temps réel avec AllMySat

Download on the App Store